Location: Clarion
(42.7316°N, 93.7330°W)
Time: 09:54:59
(UTC+00:00)

USA 281 - Pass Details

Date: 22 April 2026
Orbit: 1079 x 1080 km, 106.0° (Epoch: 5 January)

Event Time Altitude Azimuth Distance (km) Brightness Sun altitude
Exits shadow 09:45:37 21° 260° (W) 2,217 4.3 -16.7°
Drops below altitude 10° 09:50:22 10° 307° (NW) 2,926 5.3 -16.0°
Sets 09:53:39 0° 323° (NW) 3,887 6.1 -15.5°
